Regional Weather Roundup
Issued by NWS Sioux Falls, SD

Home | Current Version | Previous Version | Graphics & Text | Print | Product List | Glossary On
Versions: 1 2 3 4 5 6 7 8 9 10 11 12 13 14 15 16 17 18 19 20 21 22 23 24 25 26 27 28 29 30 31 32 33 34 35 36 37 38 39 40 41 42 43 44 45 46 47 48 49 50
000
ASUS43 KFSD 071010
RWRFSD

WEATHER ROUNDUP FOR SE SOUTH DAKOTA/SW MINNESOTA/NW IOWA
NATIONAL WEATHER SERVICE SIOUX FALLS SD
400 AM CST WED DEC 07 2016

NOTE: "FAIR" INDICATES FEW OR NO CLOUDS BELOW 12,000 FEET WITH NO
SIGNIFICANT WEATHER AND OR OBSTRUCTIONS TO VISIBILITY.


SDZ038>040-050-052>070-071100-
SOUTHEAST SOUTH DAKOTA

CITY           SKY/WX    TMP DP  RH WIND       PRES   REMARKS
BROOKINGS      CLEAR      6   1  80 W25       30.03S WCI -16
CHAMBERLAIN    CLEAR      9   2  73 W24G30    30.19S WCI -12
HURON          CLEAR      7   1  76 NW20      30.15R WCI -13
MADISON        FAIR       5   1  85 W25G33    30.08R WCI -18
MITCHELL       CLEAR      9   2  73 W17G25    30.19R WCI  -9
SIOUX FALLS    CLEAR      9   3  77 W22G31    30.12R WCI -11
WINNER         FAIR       9   0  67 NW18      30.22R WCI -10
YANKTON        CLEAR     10   3  72 W16       30.19S WCI  -7
$$

MNZ071-072-080-081-089-090-097-098-071100-
SOUTHWEST MINNESOTA

CITY           SKY/WX    TMP DP  RH WIND       PRES   REMARKS
FAIRMONT       CLEAR     13   7  77 W20       30.04R WCI  -5
JACKSON        CLEAR     10   5  79 W20G29    30.03R WCI  -8
LUVERNE        CLEAR     10   3  72 NW16G24   30.09F WCI  -7
MARSHALL       CLEAR     10   4  76 W25       30.03R WCI -11
MONTEVIDEO     CLOUDY    12   7  79 NW17G26   30.01R WCI  -5
PIPESTONE      CLEAR      9   3  78 NW22G32   30.04R WCI -11
REDWOOD FALLS  CLEAR     13   4  67 W21G30    30.01R WCI  -5
TRACY          CLEAR     11   5  77 W16G25    30.03R WCI  -6
WINDOM         CLEAR     10   5  79 W18G26    30.03R WCI  -8
WORTHINGTON    CLEAR      9   4  80 W23       30.05R WCI -11
$$

IAZ001>003-012>014-020>022-031-032-NEZ013-014-SDZ071-071100-
NORTHWEST IOWA

CITY           SKY/WX    TMP DP  RH WIND       PRES   REMARKS
CHEROKEE       CLOUDY    13   7  79 W10       30.15R WCI  -1
DENISON        PTCLDY    14   9  79 W13       30.16R WCI   0
ESTHERVILLE    CLOUDY    11   6  81 W25       30.04S WCI -10
LE MARS        CLOUDY    12   7  79 W14       30.19R WCI  -3
ORANGE CITY    CLOUDY    10   5  79 W21G29    30.12R WCI  -9
SHELDON        CLOUDY    10   7  85 W17G23    30.10R WCI  -7
SIOUX CITY     PTCLDY    16   7  67 NW16G22   30.20R WCI   1
SPENCER        CLOUDY    12   6  77 W28G35    30.09R WCI  -9
STORM LAKE     CLOUDY    12   7  79 W20G28    30.11R WCI  -6
$$

ABBREVIATIONS USED IN REMARKS
   TC - TEMPERATURE IN CELSIUS
  WCI - WIND CHILL INDEX
   HX - HEAT INDEX
  VSB - VISIBILITY




USA.gov is the U.S. government's official web portal to all federal, state and local government web resources and services.